Antalya, Turkey

2:26 AM EEST on September 30, 2016 (GMT +0300)
Antalya

Weather History for LTAI - April, 2013

Change the Weather History Date:

Saturday, April 6, 2013

  Actual Average Record
Temperature  
Mean Temperature 63 °F -  
Max Temperature 74 °F 67 °F 78 °F (2016)
Min Temperature 52 °F 48 °F 42 °F (1997)
Degree Days  
Heating Degree Days 2    
Growing Degree Days 13 (Base 50)    
Moisture  
Dew Point 54 °F    
Average Humidity 75    
Maximum Humidity 94    
Minimum Humidity 41    
Precipitation  
Precipitation 0.00 in - - ()
Sea Level Pressure  
Sea Level Pressure 29.98 in    
Wind  
Wind Speed 4 mph ()    
Max Wind Speed 8 mph    
Max Gust Speed -    
Visibility 9.0 miles    
Events      
Averages and records for this station are not official NWS values.
T = Trace of Precipitation, MM = Missing Value Source: Averaged Metar Reports

Daily Weather History Graph

Daily Weather History Graph

Search for Another Location

Airport or City:

Trip Planner

Search our weather history database for the weather conditions in past years. The results will help you decide how hot, cold, wet, or windy it might be!

Date:

Astronomy

Apr. 06, 2013 Rise Set
Actual Time 6:35 AM EEST 7:23 PM EEST
Civil Twilight 6:09 AM EEST 7:49 PM EEST
Nautical Twilight 5:38 AM EEST 8:21 PM EEST
Astronomical Twilight 5:06 AM EEST 8:53 PM EEST
Moon 4:01 AM EEST (4/6) 3:35 PM EEST (4/6)
Length of Visible Light 13h 40m
Length of Day
12h 48m
Waning Crescent, 17% of the Moon is Illuminated
Apr 6
Waning Crescent
Apr 10
New
Apr 18
First Quarter
Apr 25
Full
May 2
Last Quarter

Hourly Weather History & Observations

Time (EEST) Temp. Dew Point Humidity Pressure Visibility Wind Dir Wind Speed Gust Speed Precip Events Conditions
12:20 AM 59.0 °F 50.0 °F 72% 29.98 in - North 4.6 mph - N/A   Clear
12:50 AM 57.2 °F 50.0 °F 77% 29.98 in - NNW 3.5 mph - N/A   Clear
1:20 AM 57.2 °F 50.0 °F 77% 29.98 in - NW 3.5 mph - N/A   Clear
1:50 AM 55.4 °F 50.0 °F 82% 29.98 in - WNW 3.5 mph - N/A   Clear
2:20 AM 55.4 °F 50.0 °F 82% 29.98 in - Variable 1.2 mph - N/A   Clear
2:50 AM 53.6 °F 50.0 °F 88% 29.98 in - WSW 3.5 mph - N/A   Clear
3:00 AM 53 °F 49 °F 84% 29.97 in 6 mi WSW 3.5 mph - -  
3:20 AM 53.6 °F 50.0 °F 88% 29.98 in - West 2.3 mph - N/A   Clear
3:50 AM 53.6 °F 50.0 °F 88% 29.98 in - WSW 3.5 mph - N/A   Clear
4:20 AM 55.4 °F 50.0 °F 82% 29.98 in - WSW 5.8 mph - N/A   Clear
4:50 AM 55.4 °F 50.0 °F 82% 29.95 in - SSW 3.5 mph - N/A   Clear
5:20 AM 57.2 °F 51.8 °F 82% 29.98 in - Variable 2.3 mph - N/A   Clear
5:50 AM 53.6 °F 50.0 °F 88% 29.98 in - Variable 2.3 mph - N/A   Clear
6:20 AM 53.6 °F 48.2 °F 82% 29.98 in - Variable 4.6 mph - N/A   Clear
6:50 AM 53.6 °F 48.2 °F 82% 29.98 in - NNW 5.8 mph - N/A   Clear
7:20 AM 55.4 °F 46.4 °F 72% 30.01 in - Variable 4.6 mph - N/A   Clear
7:50 AM 55.4 °F 48.2 °F 77% 30.01 in - North 4.6 mph - N/A   Clear
8:20 AM 59.0 °F 51.8 °F 77% 30.01 in - Variable 2.3 mph - N/A   Clear
8:50 AM 62.6 °F 50.0 °F 63% 30.01 in - NNW 3.5 mph - N/A   Clear
9:00 AM 62 °F 49 °F 54% 29.99 in 12 mi NNW 3.5 mph - -  
9:20 AM 66.2 °F 50.0 °F 56% 30.01 in - Variable 2.3 mph - N/A   Clear
9:50 AM 68.0 °F 50.0 °F 52% 30.01 in - NW 3.5 mph - N/A   Clear
10:20 AM 69.8 °F 50.0 °F 49% 30.01 in - NW 4.6 mph - N/A   Clear
10:50 AM 73.4 °F 48.2 °F 41% 30.01 in - West 1.2 mph - N/A   Clear
11:20 AM 73.4 °F 50.0 °F 44% 30.01 in - Variable 2.3 mph - N/A   Clear
11:50 AM 71.6 °F 55.4 °F 57% 30.01 in - South 6.9 mph - N/A   Clear
12:20 PM 69.8 °F 55.4 °F 60% 30.01 in - South 8.1 mph - N/A   Clear
12:50 PM 69.8 °F 57.2 °F 64% 30.01 in - South 8.1 mph - N/A   Clear
1:20 PM 71.6 °F 53.6 °F 53% 30.01 in - SSE 6.9 mph - N/A   Clear
1:50 PM 71.6 °F 51.8 °F 50% 29.98 in - SSE 6.9 mph - N/A   Clear
2:20 PM 69.8 °F 57.2 °F 64% 29.98 in - SSE 6.9 mph - N/A   Clear
2:50 PM 69.8 °F 55.4 °F 60% 29.98 in - SSE 5.8 mph - N/A   Clear
3:00 PM 70 °F 56 °F 51% 29.97 in 12 mi SSE 5.8 mph - -  
3:20 PM 69.8 °F 57.2 °F 64% 29.98 in - SE 5.8 mph - N/A   Clear
3:50 PM 69.8 °F 59.0 °F 68% 29.98 in - SSE 5.8 mph - N/A   Clear
4:20 PM 68.0 °F 59.0 °F 73% 29.98 in - SSE 6.9 mph - N/A   Clear
4:50 PM 68.0 °F 60.8 °F 78% 29.95 in - SE 5.8 mph - N/A   Clear
5:20 PM 66.2 °F 60.8 °F 83% 29.95 in - SE 4.6 mph - N/A   Clear
5:50 PM 66.2 °F 60.8 °F 83% 29.95 in - SE 4.6 mph - N/A   Clear
6:20 PM 64.4 °F 60.8 °F 88% 29.95 in - ESE 3.5 mph - N/A   Clear
6:50 PM 64.4 °F 59.0 °F 83% 29.95 in - SE 3.5 mph - N/A   Clear
7:20 PM 62.6 °F 59.0 °F 88% 29.95 in - ESE 3.5 mph - N/A   Clear
7:50 PM 60.8 °F 59.0 °F 94% 29.98 in - East 3.5 mph - N/A   Clear
8:20 PM 60.8 °F 59.0 °F 94% 29.98 in - ENE 3.5 mph - N/A   Clear
8:50 PM 60.8 °F 59.0 °F 94% 29.98 in - ENE 3.5 mph - N/A   Clear
9:00 PM 60 °F 58 °F 91% 29.96 in 6 mi ENE 3.5 mph - -  
9:20 PM 60.8 °F 57.2 °F 88% 29.98 in - NE 3.5 mph - N/A   Clear
9:50 PM 60.8 °F 57.2 °F 88% 29.98 in - Variable 2.3 mph - N/A   Clear
10:20 PM 59.0 °F 57.2 °F 94% 29.98 in - Variable 2.3 mph - N/A   Clear
10:50 PM 59.0 °F 57.2 °F 94% 29.98 in - ENE 3.5 mph - N/A   Clear
11:20 PM 59.0 °F 57.2 °F 94% 29.98 in - East 2.3 mph - N/A   Clear
11:50 PM 59.0 °F 57.2 °F 94% 29.98 in - Calm Calm - N/A   Clear